Content
SEND FEEDBACK

Daily
Averages
Monthly
Summary
United States of America

MORRISVILLE, NORTH CAROLINA


Home > North America > United States > North Carolina
Elevation: 118 meters     Latitude: 35 52N     Longitude: 078 47W

WEATHER
 
SELECT A DAY
Number of Records: 197,556;   Date Range: 1/1/95 - 12/23/14
 
SHARE

PRINT THIS DATA

[ ← Previous Day ]
WEATHER ALMANAC - 4 FEBRUARY, 2013
[ Next Day → ]
[ °F ]   °C
Weather ElementAverageHighLow
Temperature4.1 °C9.4 °C (2:51 pm)-3 °C (5:51 am)
Dewpoint-6.1 °C-3.9 °C (9:51 pm)-8.3 °C (10:51 am)
Humidity49.9 %78 % (7:51 am)33 % (2:51 pm)
Barometer1018.3 hPa1021.3 hPa (10:51 am)1016.3 hPa (1:51 am)
Wind Speed8 km/h18.5 km/h (2:51 pm)
Weather ElementAverage
Visibility16.1 km
Wind DirectionESE (106.8 °)

Weather ElementTotal
Precipitation---
Heating Degree Days15.2 (Base 18.3)
Averaged from 22 records on 4 February, 2013
WEATHER CONDITIONS BREAKOUT
WIND DIRECTION BREAKOUT
WEATHER BY HOUR - 4 FEBRUARY, 2013
[ °F ]   °C
Local TimeTemperatureDewpointHumidityBarometerVisibilityWind DirectionWind SpeedGust SpeedPrecipitationEventsConditions
1:51 AM1.7 °C-6.7 °C54 %1016.3 hPa16.1 kmCalmClear
2:51 AM-0.6 °C-6.7 °C64 %1017.3 hPa16.1 kmCalmPartly Cloudy
3:51 AM-1.1 °C-6.7 °C66 %1017.3 hPa16.1 kmNorth (10°)5.6 km/hPartly Cloudy
5:51 AM-3 °C-7 °C74 %1018.3 hPa16.1 kmCalmScattered Clouds
6:51 AM-2.8 °C-6.7 °C75 %1019 hPa16.1 kmCalmMostly Cloudy
7:51 AM-2.2 °C-5.6 °C78 %1019.6 hPa16.1 kmCalmMostly Cloudy
8:51 AM1.7 °C-6.7 °C54 %1020.7 hPa16.1 kmVariable7.4 km/hMostly Cloudy
9:51 AM2.8 °C-7.2 °C48 %1020.7 hPa16.1 kmCalmOvercast
10:51 AM3.9 °C-8.3 °C41 %1021.3 hPa16.1 kmVariable9.3 km/hMostly Cloudy
11:51 AM6.1 °C-7.2 °C38 %1020.3 hPa16.1 kmVariable9.3 km/hMostly Cloudy
12:51 PM7.2 °C-7.2 °C36 %1019.6 hPa16.1 kmVariable5.6 km/hMostly Cloudy
1:51 PM8.3 °C-6.7 °C34 %1018.3 hPa16.1 kmSW (220°)9.3 km/hMostly Cloudy
2:51 PM9.4 °C-6.1 °C33 %1018.3 hPa16.1 kmSW (230°)18.5 km/hMostly Cloudy
3:51 PM8.9 °C-6.1 °C34 %1017.9 hPa16.1 kmWSW (240°)13 km/hMostly Cloudy
4:51 PM7.8 °C-6.1 °C37 %1017.3 hPa16.1 kmSSW (210°)13 km/hOvercast
5:51 PM7.2 °C-5.6 °C40 %1016.9 hPa16.1 kmSSW (210°)9.3 km/hOvercast
6:51 PM7.2 °C-5.6 °C40 %1016.9 hPa16.1 kmSouth (190°)11.1 km/hOvercast
7:51 PM7.2 °C-5.6 °C40 %1016.9 hPa16.1 kmSouth (190°)13 km/hOvercast
8:51 PM6.1 °C-4.4 °C47 %1017.3 hPa16.1 kmSW (220°)16.7 km/hMostly Cloudy
9:51 PM6.1 °C-3.9 °C49 %1016.9 hPa16.1 kmSSW (210°)14.8 km/hMostly Cloudy
10:51 PM5 °C-3.9 °C53 %1016.9 hPa16.1 kmSSW (200°)11.1 km/hPartly Cloudy
11:51 PM2.8 °C-3.9 °C62 %1016.6 hPa16.1 kmSW (220°)11.1 km/hPartly Cloudy
Hourly data recorded from KRDU, located 0 kilometers away from Morrisville, North Carolina







STORIES FROM OUR PARTNERS